This demonstration page uses our WeatherBlox Daily Observations layout. Learn more.

Left ArrowRight Arrow

30.21309, -93.2044

Hourly Observations for May 19, 2022

Temp ( °F °C ) Dew Point ( °F °C ) Humidity (%) Winds ( mph kmh ) Pressure ( in mb ) Visibility ( mi km ) Precip ( " mm )
12:15 am 00:15 Clear 77 24.9 71 21.5 81 81 SSW 8 13 29.93 1014 10 16 0.00 0.00
12:35 am 00:35 Clear 76 24.7 71 21.4 82 82 S 8 13 29.92 1013 10 16 0.00 0.00
12:55 am 00:55 Clear 76 24.5 70 21.3 82 82 S 9 15 29.92 1013 10 16 0.00 0.00
1:15 am 01:15 Clear 76 24.7 71 21.4 82 82 SSW 9 15 29.92 1013 10 16 0.00 0.00
1:35 am 01:35 Clear 76 24.6 70 21.3 82 82 SSW 10 17 29.91 1013 10 16 0.00 0.00
1:55 am 01:55 Clear 76 24.7 70 21.3 81 81 SSW 9 15 29.90 1013 10 16 0.00 0.00
2:15 am 02:15 Partly Cloudy 76 24.6 70 21.3 82 82 S 9 15 29.89 1012 10 16 0.00 0.00
2:35 am 02:35 Partly Cloudy 76 24.7 71 21.4 82 82 SSW 8 13 29.89 1012 10 16 0.00 0.00
2:55 am 02:55 Partly Cloudy 76 24.6 70 21.3 82 82 SSW 10 17 29.89 1012 10 16 0.00 0.00
3:15 am 03:15 Partly Cloudy 76 24.7 70 21.3 81 81 SSW 8 13 29.89 1012 10 16 0.00 0.00
3:35 am 03:35 Partly Cloudy 77 24.8 70 21.2 80 80 SSW 8 13 29.89 1012 10 16 0.00 0.00
3:55 am 03:55 Partly Cloudy 76 24.7 70 21.1 80 80 SSW 8 13 29.89 1012 10 16 0.00 0.00
4:15 am 04:15 Clear 76 24.6 70 21 80 80 SSW 8 13 29.89 1012 10 16 0.00 0.00
4:35 am 04:35 Clear 76 24.3 70 21.1 82 82 SSW 7 11 29.89 1012 10 16 0.00 0.00
4:55 am 04:55 Clear 76 24.3 70 21 82 82 SSW 7 11 29.88 1012 10 16 0.00 0.00
5:15 am 05:15 Clear 75 23.8 70 20.9 84 84 S 7 11 29.88 1012 10 16 0.00 0.00
5:35 am 05:35 Clear 73 22.8 69 20.7 88 88 S 7 11 29.87 1011 10 16 0.00 0.00
6:00 am 06:00 Mostly Clear 72 22 68 20 88 88 S 6 9 29.88 1012 10 16 0.00 0.00
6:45 am 06:45 Partly Cloudy 75 24 72 22 89 89 SSW 3 6 29.89 1012 10 16 0.00 0.00
7:55 am 07:55 Partly Cloudy 79 26 72 22 79 79 SSE 7 11 29.91 1013 10 16 0.00 0.00
8:45 am 08:45 Mostly Cloudy 82 28 70 21 66 66 SSE 12 19 29.92 1013 10 16 0.00 0.00
9:55 am 09:55 Mostly Cloudy 82 28 70 21 66 66 SSW 17 28 29.92 1013 10 16 0.00 0.00
10:50 am 10:50 Partly Cloudy 88 31 68 20 52 52 SSW 15 24 29.91 1013 10 16 0.00 0.00
11:45 am 11:45 Mostly Cloudy 88 31 70 21 55 55 SSW 12 19 29.91 1013 10 16 0.00 0.00
12:47 pm 12:47 Partly Cloudy 90 32 68 20 49 49 S 15 24 29.88 1012 10 16 0.00 0.00
1:45 pm 13:45 Partly Cloudy 90 32 70 21 52 52 SSW 17 28 29.86 1011 10 16 0.00 0.00
2:45 pm 14:45 Mostly Sunny 90 32 68 20 49 49 SSW 16 26 29.83 1010 10 16 0.00 0.00
3:52 pm 15:52 Mostly Sunny 90 32 66 19 46 46 S 18 30 29.81 1009 10 16 0.00 0.00
4:50 pm 16:50 Partly Cloudy 88 31 68 20 52 52 S 22 35 29.80 1009 10 16 0.00 0.00
5:45 pm 17:45 Mostly Cloudy 86 30 70 21 59 59 S 22 35 29.79 1009 10 16 0.00 0.00
6:48 pm 18:48 Partly Cloudy 82 28 70 21 66 66 S 14 22 29.78 1008 10 16 0.00 0.00
7:46 pm 19:46 Partly Cloudy 81 27 70 21 70 70 S 13 20 29.78 1008 10 16 0.00 0.00
8:55 pm 20:55 Mostly Clear 79 26 70 21 74 74 S 13 20 29.79 1009 10 16 0.00 0.00
9:45 pm 21:45 Mostly Clear 75 24 70 21 83 83 SSE 8 13 29.79 1009 10 16 0.00 0.00
10:15 pm 22:15 Clear 74 23.5 69 20.8 85 85 S 7 11 29.80 1009 10 16 0.00 0.00
10:35 pm 22:35 Clear 73 22.9 69 20.6 87 87 SSE 9 15 29.79 1009 10 16 0.00 0.00
10:55 pm 22:55 Clear 74 23.4 69 20.8 85 85 SSE 8 13 29.80 1009 10 16 0.00 0.00
11:15 pm 23:15 Clear 74 23.1 69 20.7 86 86 S 7 11 29.79 1009 10 16 0.00 0.00
11:35 pm 23:35 Clear 72 22.4 69 20.5 89 89 SSE 8 13 29.79 1009 10 16 0.00 0.00
11:55 pm 23:55 Clear 73 22.5 69 20.4 88 88 SSE 7 11 29.79 1009 10 16 0.00 0.00

Powered by AerisWeather